This demonstration page uses our WeatherBlox Daily Observations layout. Learn more.

Left ArrowRight Arrow

31.84235, -102.49876

Hourly Observations for June 7, 2022

Temp ( °F °C ) Dew Point ( °F °C ) Humidity (%) Winds ( mph kmh ) Pressure ( in mb ) Visibility ( mi km ) Precip ( " mm )
12:53 am 00:53 Clear 81 27.2 59 15 47 47 E 9 15 29.59 1002 10 16 0.00 0.00
1:53 am 01:53 Clear 83 28.3 57 13.9 41 41 E 12 19 29.58 1002 10 16 0.00 0.00
2:53 am 02:53 Clear 79 26.1 56 13.3 45 45 E 7 11 29.57 1001 10 16 0.00 0.00
3:53 am 03:53 Clear 78 25.6 56 13.3 47 47 ESE 7 11 29.57 1001 10 16 0.00 0.00
4:53 am 04:53 Clear 77 25 54 12.2 45 45 SE 9 15 29.58 1002 10 16 0.00 0.00
5:53 am 05:53 Clear 76 24.4 52 11.1 43 43 S 6 9 29.59 1002 10 16 0.00 0.00
6:53 am 06:53 Sunny 76 24.4 56 13.3 50 50 SSW 7 11 29.61 1003 10 16 0.00 0.00
7:53 am 07:53 Sunny 80 26.7 59 15 49 49 SSW 14 22 29.62 1003 10 16 0.00 0.00
8:53 am 08:53 Sunny 83 28.3 60 15.6 46 46 SSW 17 28 29.64 1004 10 16 0.00 0.00
9:53 am 09:53 Sunny 88 31.1 57 13.9 35 35 SSW 15 24 29.66 1004 10 16 0.00 0.00
10:53 am 10:53 Sunny 95 35 49 9.4 21 21 WSW 12 19 29.66 1004 10 16 0.00 0.00
11:53 am 11:53 Sunny 99 37.2 43 6.1 15 15 WSW 9 15 29.67 1005 10 16 0.00 0.00
12:53 pm 12:53 Sunny 101 38.3 52 11.1 19 19 NNE 15 24 29.68 1005 10 16 0.00 0.00
1:53 pm 13:53 Sunny 98 36.7 54 12.2 23 23 ESE 8 13 29.67 1005 10 16 0.00 0.00
2:53 pm 14:53 Sunny 101 38.3 54 12.2 21 21 NNE 8 13 29.66 1004 10 16 0.00 0.00
3:53 pm 15:53 Sunny 102 38.9 55 12.8 21 21 E 13 20 29.65 1004 10 16 0.00 0.00
4:53 pm 16:53 Sunny 104 40 53 11.7 18 18 NNE 8 13 29.63 1004 10 16 0.00 0.00
5:53 pm 17:53 Sunny 103 39.4 54 12.2 20 20 NNE 9 15 29.62 1003 10 16 0.00 0.00
6:53 pm 18:53 Sunny 103 39.4 55 12.8 20 20 E 14 22 29.61 1003 10 16 0.00 0.00
7:53 pm 19:53 Sunny 101 38.3 56 13.3 22 22 ENE 9 15 29.62 1003 10 16 0.00 0.00
8:53 pm 20:53 Sunny 97 36.1 58 14.4 27 27 E 8 13 29.63 1003 10 16 0.00 0.00
9:53 pm 21:53 Clear 94 34.4 60 15.6 32 32 SE 10 17 29.66 1004 10 16 0.00 0.00
10:53 pm 22:53 Clear 92 33.3 62 16.7 37 37 SSE 14 22 29.68 1005 10 16 0.00 0.00
11:53 pm 23:53 Clear 90 32.2 61 16.1 38 38 S 17 28 29.70 1006 10 16 0.00 0.00

Powered by AerisWeather